Terug naar catalogus

STARLINK-11616

ActiefCommunicatieVLEO
NORAD 63137·PAYLOAD·🇺🇸 United States

Gelanceerd Mar 3, 2025 vanaf Cape Canaveral Space Force Station

Loading…

Volgende Passages (komende 24 uur)

TLE

VersSource: CelesTrak SupGP

Epoch: Sep 14, 2026, 20:54 UTC

1 63137C 25043F   26257.87131944  .00047554  00000+0  36932-3 0  2570
2 63137  43.0004 190.0605 0001513 255.6493 304.1541 15.70816703    15

Volg STARLINK-11616 in realtime met AllMySat

Download on the App Store